owner,sensor,date,latitude,longitude,vertical_datum,sea_water_practical_salinity,qcFlag 
ENP,ioos.station.NOAA.NDBC:LMDF1:1,2017-11-01T00:00:00Z,25.1760,-80.6330,1.5,15.1,1111122 
ENP,ioos.station.NOAA.NDBC:LMDF1:1,2017-11-01T01:00:00Z,25.1760,-80.6330,1.5,15.12,1111122 
ENP,ioos.station.NOAA.NDBC:LMDF1:1,2017-11-01T03:00:00Z,25.1760,-80.6330,1.5,15.09,1111122 
ENP,ioos.station.NOAA.NDBC:LMDF1:1,2017-11-01T04:00:00Z,25.1760,-80.6330,1.5,15.05,1111122 
ENP,ioos.station.NOAA.NDBC:LMDF1:1,2017-11-01T07:00:00Z,25.1760,-80.6330,1.5,15.06,1111122 
ENP,ioos.station.NOAA.NDBC:LMDF1:1,2017-11-01T08:00:00Z,25.1760,-80.6330,1.5,15.03,1111122 
ENP,ioos.station.NOAA.NDBC:LMDF1:1,2017-11-01T09:00:00Z,25.1760,-80.6330,1.5,15.0,1111122 
ENP,ioos.station.NOAA.NDBC:LMDF1:1,2017-11-01T12:00:00Z,25.1760,-80.6330,1.5,15.23,1111122 
ENP,ioos.station.NOAA.NDBC:LMDF1:1,2017-11-01T13:00:00Z,25.1760,-80.6330,1.5,15.06,1111122 
ENP,ioos.station.NOAA.NDBC:LMDF1:1,2017-11-01T14:00:00Z,25.1760,-80.6330,1.5,14.09,1111122 
ENP,ioos.station.NOAA.NDBC:LMDF1:1,2017-11-01T15:00:00Z,25.1760,-80.6330,1.5,14.87,1111122 
ENP,ioos.station.NOAA.NDBC:LMDF1:1,2017-11-01T16:00:00Z,25.1760,-80.6330,1.5,15.2,1111122 
ENP,ioos.station.NOAA.NDBC:LMDF1:1,2017-11-01T17:00:00Z,25.1760,-80.6330,1.5,14.84,1111122 
ENP,ioos.station.NOAA.NDBC:LMDF1:1,2017-11-01T18:00:00Z,25.1760,-80.6330,1.5,14.68,1111122 
ENP,ioos.station.NOAA.NDBC:LMDF1:1,2017-11-01T19:00:00Z,25.1760,-80.6330,1.5,11.69,1111122 
ENP,ioos.station.NOAA.NDBC:LMDF1:1,2017-11-01T20:00:00Z,25.1760,-80.6330,1.5,13.65,1111122 
ENP,ioos.station.NOAA.NDBC:LMDF1:1,2017-11-01T21:00:00Z,25.1760,-80.6330,1.5,13.8,1111122 
ENP,ioos.station.NOAA.NDBC:LMDF1:1,2017-11-01T22:00:00Z,25.1760,-80.6330,1.5,10.57,1111122 
ENP,ioos.station.NOAA.NDBC:LMDF1:1,2017-11-01T23:00:00Z,25.1760,-80.6330,1.5,15.14,1111122 
ENP,ioos.station.NOAA.NDBC:LMDF1:1,2017-11-02T00:00:00Z,25.1760,-80.6330,1.5,15.2,1111122 
ENP,ioos.station.NOAA.NDBC:LMDF1:1,2017-11-02T01:00:00Z,25.1760,-80.6330,1.5,15.26,1111122 
ENP,ioos.station.NOAA.NDBC:LMDF1:1,2017-11-02T03:00:00Z,25.1760,-80.6330,1.5,14.91,1111122 
ENP,ioos.station.NOAA.NDBC:LMDF1:1,2017-11-02T04:00:00Z,25.1760,-80.6330,1.5,15.14,1111122 
ENP,ioos.station.NOAA.NDBC:LMDF1:1,2017-11-02T06:00:00Z,25.1760,-80.6330,1.5,15.3,1111122 
ENP,ioos.station.NOAA.NDBC:LMDF1:1,2017-11-02T07:00:00Z,25.1760,-80.6330,1.5,15.28,1111122 
ENP,ioos.station.NOAA.NDBC:LMDF1:1,2017-11-02T08:00:00Z,25.1760,-80.6330,1.5,15.31,1111122 
ENP,ioos.station.NOAA.NDBC:LMDF1:1,2017-11-02T09:00:00Z,25.1760,-80.6330,1.5,15.3,1111122 
ENP,ioos.station.NOAA.NDBC:LMDF1:1,2017-11-02T11:00:00Z,25.1760,-80.6330,1.5,15.16,1111122 
ENP,ioos.station.NOAA.NDBC:LMDF1:1,2017-11-02T12:00:00Z,25.1760,-80.6330,1.5,15.9,1111122 
ENP,ioos.station.NOAA.NDBC:LMDF1:1,2017-11-02T13:00:00Z,25.1760,-80.6330,1.5,16.55,1111122 
ENP,ioos.station.NOAA.NDBC:LMDF1:1,2017-11-02T14:00:00Z,25.1760,-80.6330,1.5,16.72,1111122 
ENP,ioos.station.NOAA.NDBC:LMDF1:1,2017-11-02T15:00:00Z,25.1760,-80.6330,1.5,17.03,1111122 
ENP,ioos.station.NOAA.NDBC:LMDF1:1,2017-11-02T16:00:00Z,25.1760,-80.6330,1.5,17.07,1111122 
ENP,ioos.station.NOAA.NDBC:LMDF1:1,2017-11-02T17:00:00Z,25.1760,-80.6330,1.5,17.42,1111122 
ENP,ioos.station.NOAA.NDBC:LMDF1:1,2017-11-02T18:00:00Z,25.1760,-80.6330,1.5,17.13,1111122 
ENP,ioos.station.NOAA.NDBC:LMDF1:1,2017-11-02T19:00:00Z,25.1760,-80.6330,1.5,16.94,1111122 
ENP,ioos.station.NOAA.NDBC:LMDF1:1,2017-11-02T20:00:00Z,25.1760,-80.6330,1.5,17.25,1111122 
ENP,ioos.station.NOAA.NDBC:LMDF1:1,2017-11-02T21:00:00Z,25.1760,-80.6330,1.5,16.72,1111122 
ENP,ioos.station.NOAA.NDBC:LMDF1:1,2017-11-02T22:00:00Z,25.1760,-80.6330,1.5,16.96,1111122 
ENP,ioos.station.NOAA.NDBC:LMDF1:1,2017-11-02T23:00:00Z,25.1760,-80.6330,1.5,16.47,1111122 
ENP,ioos.station.NOAA.NDBC:LMDF1:1,2017-11-03T00:00:00Z,25.1760,-80.6330,1.5,10.88,1111122 
ENP,ioos.station.NOAA.NDBC:LMDF1:1,2017-11-03T01:00:00Z,25.1760,-80.6330,1.5,15.01,1111122 
ENP,ioos.station.NOAA.NDBC:LMDF1:1,2017-11-03T03:00:00Z,25.1760,-80.6330,1.5,13.61,1111122 
ENP,ioos.station.NOAA.NDBC:LMDF1:1,2017-11-03T04:00:00Z,25.1760,-80.6330,1.5,16.99,1111122 
ENP,ioos.station.NOAA.NDBC:LMDF1:1,2017-11-03T06:00:00Z,25.1760,-80.6330,1.5,15.95,1111122 
ENP,ioos.station.NOAA.NDBC:LMDF1:1,2017-11-03T07:00:00Z,25.1760,-80.6330,1.5,16.98,1111122 
ENP,ioos.station.NOAA.NDBC:LMDF1:1,2017-11-03T08:00:00Z,25.1760,-80.6330,1.5,17.69,1111122 
ENP,ioos.station.NOAA.NDBC:LMDF1:1,2017-11-03T09:00:00Z,25.1760,-80.6330,1.5,18.24,1111122 
ENP,ioos.station.NOAA.NDBC:LMDF1:1,2017-11-03T11:00:00Z,25.1760,-80.6330,1.5,18.34,1111122 
ENP,ioos.station.NOAA.NDBC:LMDF1:1,2017-11-03T12:00:00Z,25.1760,-80.6330,1.5,18.24,1111122 
ENP,ioos.station.NOAA.NDBC:LMDF1:1,2017-11-03T13:00:00Z,25.1760,-80.6330,1.5,18.29,1111122 
ENP,ioos.station.NOAA.NDBC:LMDF1:1,2017-11-03T14:00:00Z,25.1760,-80.6330,1.5,18.29,1111122 
ENP,ioos.station.NOAA.NDBC:LMDF1:1,2017-11-03T15:00:00Z,25.1760,-80.6330,1.5,18.27,1111122 
ENP,ioos.station.NOAA.NDBC:LMDF1:1,2017-11-03T16:00:00Z,25.1760,-80.6330,1.5,18.32,1111122 
ENP,ioos.station.NOAA.NDBC:LMDF1:1,2017-11-03T17:00:00Z,25.1760,-80.6330,1.5,18.33,1111122 
ENP,ioos.station.NOAA.NDBC:LMDF1:1,2017-11-03T18:00:00Z,25.1760,-80.6330,1.5,18.15,1111122 
ENP,ioos.station.NOAA.NDBC:LMDF1:1,2017-11-03T19:00:00Z,25.1760,-80.6330,1.5,17.5,1111122 
ENP,ioos.station.NOAA.NDBC:LMDF1:1,2017-11-03T20:00:00Z,25.1760,-80.6330,1.5,18.22,1111122 
ENP,ioos.station.NOAA.NDBC:LMDF1:1,2017-11-03T21:00:00Z,25.1760,-80.6330,1.5,18.2,1111122 
ENP,ioos.station.NOAA.NDBC:LMDF1:1,2017-11-03T22:00:00Z,25.1760,-80.6330,1.5,15.62,1111122 
ENP,ioos.station.NOAA.NDBC:LMDF1:1,2017-11-03T23:00:00Z,25.1760,-80.6330,1.5,17.87,1111122 
ENP,ioos.station.NOAA.NDBC:LMDF1:1,2017-11-04T00:00:00Z,25.1760,-80.6330,1.5,17.76,1111122 
ENP,ioos.station.NOAA.NDBC:LMDF1:1,2017-11-04T01:00:00Z,25.1760,-80.6330,1.5,18.0,1111122 
ENP,ioos.station.NOAA.NDBC:LMDF1:1,2017-11-04T04:00:00Z,25.1760,-80.6330,1.5,17.88,1111122 
ENP,ioos.station.NOAA.NDBC:LMDF1:1,2017-11-04T07:00:00Z,25.1760,-80.6330,1.5,18.89,1111122 
ENP,ioos.station.NOAA.NDBC:LMDF1:1,2017-11-04T08:00:00Z,25.1760,-80.6330,1.5,19.08,1111122 
ENP,ioos.station.NOAA.NDBC:LMDF1:1,2017-11-04T09:00:00Z,25.1760,-80.6330,1.5,18.66,1111122 
ENP,ioos.station.NOAA.NDBC:LMDF1:1,2017-11-04T11:00:00Z,25.1760,-80.6330,1.5,19.53,1111122 
ENP,ioos.station.NOAA.NDBC:LMDF1:1,2017-11-04T12:00:00Z,25.1760,-80.6330,1.5,19.64,1111122 
ENP,ioos.station.NOAA.NDBC:LMDF1:1,2017-11-04T13:00:00Z,25.1760,-80.6330,1.5,19.57,1111122 
ENP,ioos.station.NOAA.NDBC:LMDF1:1,2017-11-04T14:00:00Z,25.1760,-80.6330,1.5,19.58,1111122 
ENP,ioos.station.NOAA.NDBC:LMDF1:1,2017-11-04T15:00:00Z,25.1760,-80.6330,1.5,19.7,1111122 
ENP,ioos.station.NOAA.NDBC:LMDF1:1,2017-11-04T16:00:00Z,25.1760,-80.6330,1.5,19.58,1111122 
ENP,ioos.station.NOAA.NDBC:LMDF1:1,2017-11-04T17:00:00Z,25.1760,-80.6330,1.5,19.54,1111122 
ENP,ioos.station.NOAA.NDBC:LMDF1:1,2017-11-04T18:00:00Z,25.1760,-80.6330,1.5,19.56,1111122 
ENP,ioos.station.NOAA.NDBC:LMDF1:1,2017-11-04T19:00:00Z,25.1760,-80.6330,1.5,19.91,1111122 
ENP,ioos.station.NOAA.NDBC:LMDF1:1,2017-11-04T20:00:00Z,25.1760,-80.6330,1.5,18.82,1111122 
ENP,ioos.station.NOAA.NDBC:LMDF1:1,2017-11-04T21:00:00Z,25.1760,-80.6330,1.5,19.68,1111122 
ENP,ioos.station.NOAA.NDBC:LMDF1:1,2017-11-04T22:00:00Z,25.1760,-80.6330,1.5,19.4,1111122 
ENP,ioos.station.NOAA.NDBC:LMDF1:1,2017-11-04T23:00:00Z,25.1760,-80.6330,1.5,18.64,1111122 
ENP,ioos.station.NOAA.NDBC:LMDF1:1,2017-11-05T00:00:00Z,25.1760,-80.6330,1.5,19.47,1111122 
ENP,ioos.station.NOAA.NDBC:LMDF1:1,2017-11-05T01:00:00Z,25.1760,-80.6330,1.5,19.73,1111122 
ENP,ioos.station.NOAA.NDBC:LMDF1:1,2017-11-05T04:00:00Z,25.1760,-80.6330,1.5,19.44,1111122 
ENP,ioos.station.NOAA.NDBC:LMDF1:1,2017-11-05T05:00:00Z,25.1760,-80.6330,1.5,19.35,1111122 
ENP,ioos.station.NOAA.NDBC:LMDF1:1,2017-11-05T08:00:00Z,25.1760,-80.6330,1.5,19.21,1111122 
ENP,ioos.station.NOAA.NDBC:LMDF1:1,2017-11-05T09:00:00Z,25.1760,-80.6330,1.5,19.11,1111122 
ENP,ioos.station.NOAA.NDBC:LMDF1:1,2017-11-05T10:00:00Z,25.1760,-80.6330,1.5,19.11,1111122 
ENP,ioos.station.NOAA.NDBC:LMDF1:1,2017-11-05T13:00:00Z,25.1760,-80.6330,1.5,19.67,1111122 
ENP,ioos.station.NOAA.NDBC:LMDF1:1,2017-11-05T14:00:00Z,25.1760,-80.6330,1.5,19.78,1111122 
ENP,ioos.station.NOAA.NDBC:LMDF1:1,2017-11-05T15:00:00Z,25.1760,-80.6330,1.5,19.88,1111122 
ENP,ioos.station.NOAA.NDBC:LMDF1:1,2017-11-05T16:00:00Z,25.1760,-80.6330,1.5,20.13,1111122 
ENP,ioos.station.NOAA.NDBC:LMDF1:1,2017-11-05T17:00:00Z,25.1760,-80.6330,1.5,20.21,1111122 
ENP,ioos.station.NOAA.NDBC:LMDF1:1,2017-11-05T18:00:00Z,25.1760,-80.6330,1.5,20.19,1111122 
ENP,ioos.station.NOAA.NDBC:LMDF1:1,2017-11-05T19:00:00Z,25.1760,-80.6330,1.5,19.76,1111122 
ENP,ioos.station.NOAA.NDBC:LMDF1:1,2017-11-05T20:00:00Z,25.1760,-80.6330,1.5,20.09,1111122 
ENP,ioos.station.NOAA.NDBC:LMDF1:1,2017-11-05T21:00:00Z,25.1760,-80.6330,1.5,20.21,1111122 
ENP,ioos.station.NOAA.NDBC:LMDF1:1,2017-11-05T22:00:00Z,25.1760,-80.6330,1.5,18.83,1111122 
ENP,ioos.station.NOAA.NDBC:LMDF1:1,2017-11-05T23:00:00Z,25.1760,-80.6330,1.5,18.68,1111122 
ENP,ioos.station.NOAA.NDBC:LMDF1:1,2017-11-06T00:00:00Z,25.1760,-80.6330,1.5,19.41,1111122 
ENP,ioos.station.NOAA.NDBC:LMDF1:1,2017-11-06T01:00:00Z,25.1760,-80.6330,1.5,18.42,1111122 
ENP,ioos.station.NOAA.NDBC:LMDF1:1,2017-11-06T02:00:00Z,25.1760,-80.6330,1.5,18.04,1111122 
ENP,ioos.station.NOAA.NDBC:LMDF1:1,2017-11-06T04:00:00Z,25.1760,-80.6330,1.5,19.61,1111122 
ENP,ioos.station.NOAA.NDBC:LMDF1:1,2017-11-06T05:00:00Z,25.1760,-80.6330,1.5,19.8,1111122 
ENP,ioos.station.NOAA.NDBC:LMDF1:1,2017-11-06T07:00:00Z,25.1760,-80.6330,1.5,19.7,1111122 
ENP,ioos.station.NOAA.NDBC:LMDF1:1,2017-11-06T08:00:00Z,25.1760,-80.6330,1.5,19.01,1111122 
ENP,ioos.station.NOAA.NDBC:LMDF1:1,2017-11-06T09:00:00Z,25.1760,-80.6330,1.5,19.3,1111122 
ENP,ioos.station.NOAA.NDBC:LMDF1:1,2017-11-06T10:00:00Z,25.1760,-80.6330,1.5,19.5,1111122 
ENP,ioos.station.NOAA.NDBC:LMDF1:1,2017-11-06T12:00:00Z,25.1760,-80.6330,1.5,19.71,1111122 
ENP,ioos.station.NOAA.NDBC:LMDF1:1,2017-11-06T13:00:00Z,25.1760,-80.6330,1.5,19.97,1111122 
ENP,ioos.station.NOAA.NDBC:LMDF1:1,2017-11-06T14:00:00Z,25.1760,-80.6330,1.5,20.06,1111122 
ENP,ioos.station.NOAA.NDBC:LMDF1:1,2017-11-06T15:00:00Z,25.1760,-80.6330,1.5,20.06,1111122 
ENP,ioos.station.NOAA.NDBC:LMDF1:1,2017-11-06T16:00:00Z,25.1760,-80.6330,1.5,20.12,1111122 
ENP,ioos.station.NOAA.NDBC:LMDF1:1,2017-11-06T17:00:00Z,25.1760,-80.6330,1.5,20.13,1111122 
ENP,ioos.station.NOAA.NDBC:LMDF1:1,2017-11-06T18:00:00Z,25.1760,-80.6330,1.5,20.07,1111122 
ENP,ioos.station.NOAA.NDBC:LMDF1:1,2017-11-06T19:00:00Z,25.1760,-80.6330,1.5,19.75,1111122 
ENP,ioos.station.NOAA.NDBC:LMDF1:1,2017-11-06T20:00:00Z,25.1760,-80.6330,1.5,18.42,1111122 
ENP,ioos.station.NOAA.NDBC:LMDF1:1,2017-11-06T21:00:00Z,25.1760,-80.6330,1.5,19.17,1111122 
ENP,ioos.station.NOAA.NDBC:LMDF1:1,2017-11-06T22:00:00Z,25.1760,-80.6330,1.5,18.59,1111122 
ENP,ioos.station.NOAA.NDBC:LMDF1:1,2017-11-06T23:00:00Z,25.1760,-80.6330,1.5,18.61,1111122 
ENP,ioos.station.NOAA.NDBC:LMDF1:1,2017-11-07T00:00:00Z,25.1760,-80.6330,1.5,18.66,1111122 
ENP,ioos.station.NOAA.NDBC:LMDF1:1,2017-11-07T01:00:00Z,25.1760,-80.6330,1.5,18.43,1111122 
ENP,ioos.station.NOAA.NDBC:LMDF1:1,2017-11-07T02:00:00Z,25.1760,-80.6330,1.5,18.21,1111122 
ENP,ioos.station.NOAA.NDBC:LMDF1:1,2017-11-07T04:00:00Z,25.1760,-80.6330,1.5,18.06,1111122 
ENP,ioos.station.NOAA.NDBC:LMDF1:1,2017-11-07T05:00:00Z,25.1760,-80.6330,1.5,17.06,1111122 
ENP,ioos.station.NOAA.NDBC:LMDF1:1,2017-11-07T07:00:00Z,25.1760,-80.6330,1.5,17.21,1111122 
ENP,ioos.station.NOAA.NDBC:LMDF1:1,2017-11-07T08:00:00Z,25.1760,-80.6330,1.5,17.48,1111122 
ENP,ioos.station.NOAA.NDBC:LMDF1:1,2017-11-07T09:00:00Z,25.1760,-80.6330,1.5,17.86,1111122 
ENP,ioos.station.NOAA.NDBC:LMDF1:1,2017-11-07T10:00:00Z,25.1760,-80.6330,1.5,17.8,1111122 
ENP,ioos.station.NOAA.NDBC:LMDF1:1,2017-11-07T12:00:00Z,25.1760,-80.6330,1.5,18.81,1111122 
ENP,ioos.station.NOAA.NDBC:LMDF1:1,2017-11-07T13:00:00Z,25.1760,-80.6330,1.5,19.13,1111122 
ENP,ioos.station.NOAA.NDBC:LMDF1:1,2017-11-07T14:00:00Z,25.1760,-80.6330,1.5,19.31,1111122 
ENP,ioos.station.NOAA.NDBC:LMDF1:1,2017-11-07T15:00:00Z,25.1760,-80.6330,1.5,19.54,1111122 
ENP,ioos.station.NOAA.NDBC:LMDF1:1,2017-11-07T16:00:00Z,25.1760,-80.6330,1.5,19.82,1111122 
ENP,ioos.station.NOAA.NDBC:LMDF1:1,2017-11-07T17:00:00Z,25.1760,-80.6330,1.5,19.97,1111122 
ENP,ioos.station.NOAA.NDBC:LMDF1:1,2017-11-07T18:00:00Z,25.1760,-80.6330,1.5,19.7,1111122 
ENP,ioos.station.NOAA.NDBC:LMDF1:1,2017-11-07T19:00:00Z,25.1760,-80.6330,1.5,19.3,1111122 
ENP,ioos.station.NOAA.NDBC:LMDF1:1,2017-11-07T20:00:00Z,25.1760,-80.6330,1.5,18.78,1111122 
ENP,ioos.station.NOAA.NDBC:LMDF1:1,2017-11-07T21:00:00Z,25.1760,-80.6330,1.5,17.29,1111122 
ENP,ioos.station.NOAA.NDBC:LMDF1:1,2017-11-07T22:00:00Z,25.1760,-80.6330,1.5,17.97,1111122 
ENP,ioos.station.NOAA.NDBC:LMDF1:1,2017-11-07T23:00:00Z,25.1760,-80.6330,1.5,18.44,1111122 
ENP,ioos.station.NOAA.NDBC:LMDF1:1,2017-11-08T00:00:00Z,25.1760,-80.6330,1.5,18.56,1111122 
ENP,ioos.station.NOAA.NDBC:LMDF1:1,2017-11-08T01:00:00Z,25.1760,-80.6330,1.5,18.11,1111122 
ENP,ioos.station.NOAA.NDBC:LMDF1:1,2017-11-08T02:00:00Z,25.1760,-80.6330,1.5,18.56,1111122 
ENP,ioos.station.NOAA.NDBC:LMDF1:1,2017-11-08T05:00:00Z,25.1760,-80.6330,1.5,17.62,1111122 
ENP,ioos.station.NOAA.NDBC:LMDF1:1,2017-11-08T07:00:00Z,25.1760,-80.6330,1.5,17.31,1111122 
ENP,ioos.station.NOAA.NDBC:LMDF1:1,2017-11-08T08:00:00Z,25.1760,-80.6330,1.5,17.74,1111122 
ENP,ioos.station.NOAA.NDBC:LMDF1:1,2017-11-08T09:00:00Z,25.1760,-80.6330,1.5,18.27,1111122 
ENP,ioos.station.NOAA.NDBC:LMDF1:1,2017-11-08T10:00:00Z,25.1760,-80.6330,1.5,17.11,1111122 
ENP,ioos.station.NOAA.NDBC:LMDF1:1,2017-11-08T12:00:00Z,25.1760,-80.6330,1.5,19.04,1111122 
ENP,ioos.station.NOAA.NDBC:LMDF1:1,2017-11-08T13:00:00Z,25.1760,-80.6330,1.5,18.36,1111122 
ENP,ioos.station.NOAA.NDBC:LMDF1:1,2017-11-08T14:00:00Z,25.1760,-80.6330,1.5,18.89,1111122 
ENP,ioos.station.NOAA.NDBC:LMDF1:1,2017-11-08T15:00:00Z,25.1760,-80.6330,1.5,18.93,1111122 
ENP,ioos.station.NOAA.NDBC:LMDF1:1,2017-11-08T16:00:00Z,25.1760,-80.6330,1.5,19.21,1111122 
ENP,ioos.station.NOAA.NDBC:LMDF1:1,2017-11-08T17:00:00Z,25.1760,-80.6330,1.5,19.22,1111122 
ENP,ioos.station.NOAA.NDBC:LMDF1:1,2017-11-08T18:00:00Z,25.1760,-80.6330,1.5,17.27,1111122 
ENP,ioos.station.NOAA.NDBC:LMDF1:1,2017-11-08T19:00:00Z,25.1760,-80.6330,1.5,18.66,1111122 
ENP,ioos.station.NOAA.NDBC:LMDF1:1,2017-11-08T20:00:00Z,25.1760,-80.6330,1.5,18.6,1111122 
ENP,ioos.station.NOAA.NDBC:LMDF1:1,2017-11-08T21:00:00Z,25.1760,-80.6330,1.5,18.04,1111122 
ENP,ioos.station.NOAA.NDBC:LMDF1:1,2017-11-08T22:00:00Z,25.1760,-80.6330,1.5,12.77,1111122 
ENP,ioos.station.NOAA.NDBC:LMDF1:1,2017-11-08T23:00:00Z,25.1760,-80.6330,1.5,15.43,1111122 
ENP,ioos.station.NOAA.NDBC:LMDF1:1,2017-11-09T00:00:00Z,25.1760,-80.6330,1.5,17.56,1111122 
ENP,ioos.station.NOAA.NDBC:LMDF1:1,2017-11-09T01:00:00Z,25.1760,-80.6330,1.5,16.0,1111122 
ENP,ioos.station.NOAA.NDBC:LMDF1:1,2017-11-09T02:00:00Z,25.1760,-80.6330,1.5,15.44,1111122 
ENP,ioos.station.NOAA.NDBC:LMDF1:1,2017-11-09T04:00:00Z,25.1760,-80.6330,1.5,17.16,1111122 
ENP,ioos.station.NOAA.NDBC:LMDF1:1,2017-11-09T05:00:00Z,25.1760,-80.6330,1.5,16.78,1111122 
ENP,ioos.station.NOAA.NDBC:LMDF1:1,2017-11-09T07:00:00Z,25.1760,-80.6330,1.5,17.19,1111122 
ENP,ioos.station.NOAA.NDBC:LMDF1:1,2017-11-09T08:00:00Z,25.1760,-80.6330,1.5,16.18,1111122 
ENP,ioos.station.NOAA.NDBC:LMDF1:1,2017-11-09T09:00:00Z,25.1760,-80.6330,1.5,16.12,1111122 
ENP,ioos.station.NOAA.NDBC:LMDF1:1,2017-11-09T10:00:00Z,25.1760,-80.6330,1.5,16.25,1111122 
ENP,ioos.station.NOAA.NDBC:LMDF1:1,2017-11-09T12:00:00Z,25.1760,-80.6330,1.5,16.57,1111122 
ENP,ioos.station.NOAA.NDBC:LMDF1:1,2017-11-09T13:00:00Z,25.1760,-80.6330,1.5,17.54,1111122 
ENP,ioos.station.NOAA.NDBC:LMDF1:1,2017-11-09T14:00:00Z,25.1760,-80.6330,1.5,17.43,1111122 
ENP,ioos.station.NOAA.NDBC:LMDF1:1,2017-11-09T15:00:00Z,25.1760,-80.6330,1.5,17.03,1111122 
ENP,ioos.station.NOAA.NDBC:LMDF1:1,2017-11-09T16:00:00Z,25.1760,-80.6330,1.5,15.04,1111122 
ENP,ioos.station.NOAA.NDBC:LMDF1:1,2017-11-09T17:00:00Z,25.1760,-80.6330,1.5,11.81,1111122 
ENP,ioos.station.NOAA.NDBC:LMDF1:1,2017-11-09T18:00:00Z,25.1760,-80.6330,1.5,15.2,1111122 
ENP,ioos.station.NOAA.NDBC:LMDF1:1,2017-11-09T19:00:00Z,25.1760,-80.6330,1.5,15.35,1111122 
ENP,ioos.station.NOAA.NDBC:LMDF1:1,2017-11-09T20:00:00Z,25.1760,-80.6330,1.5,14.45,1111122 
ENP,ioos.station.NOAA.NDBC:LMDF1:1,2017-11-09T21:00:00Z,25.1760,-80.6330,1.5,13.86,1111122 
ENP,ioos.station.NOAA.NDBC:LMDF1:1,2017-11-09T22:00:00Z,25.1760,-80.6330,1.5,14.73,1111122 
ENP,ioos.station.NOAA.NDBC:LMDF1:1,2017-11-09T23:00:00Z,25.1760,-80.6330,1.5,16.61,1111122 
ENP,ioos.station.NOAA.NDBC:LMDF1:1,2017-11-10T00:00:00Z,25.1760,-80.6330,1.5,16.71,1111122 
ENP,ioos.station.NOAA.NDBC:LMDF1:1,2017-11-10T01:00:00Z,25.1760,-80.6330,1.5,17.04,1111122 
ENP,ioos.station.NOAA.NDBC:LMDF1:1,2017-11-10T02:00:00Z,25.1760,-80.6330,1.5,16.47,1111122 
ENP,ioos.station.NOAA.NDBC:LMDF1:1,2017-11-10T04:00:00Z,25.1760,-80.6330,1.5,16.68,1111122 
ENP,ioos.station.NOAA.NDBC:LMDF1:1,2017-11-10T05:00:00Z,25.1760,-80.6330,1.5,16.48,1111122 
ENP,ioos.station.NOAA.NDBC:LMDF1:1,2017-11-10T07:00:00Z,25.1760,-80.6330,1.5,16.07,1111122 
ENP,ioos.station.NOAA.NDBC:LMDF1:1,2017-11-10T08:00:00Z,25.1760,-80.6330,1.5,16.2,1111122 
ENP,ioos.station.NOAA.NDBC:LMDF1:1,2017-11-10T09:00:00Z,25.1760,-80.6330,1.5,16.08,1111122 
ENP,ioos.station.NOAA.NDBC:LMDF1:1,2017-11-10T10:00:00Z,25.1760,-80.6330,1.5,16.29,1111122 
ENP,ioos.station.NOAA.NDBC:LMDF1:1,2017-11-10T12:00:00Z,25.1760,-80.6330,1.5,15.38,1111122 
ENP,ioos.station.NOAA.NDBC:LMDF1:1,2017-11-10T13:00:00Z,25.1760,-80.6330,1.5,15.29,1111122 
ENP,ioos.station.NOAA.NDBC:LMDF1:1,2017-11-10T14:00:00Z,25.1760,-80.6330,1.5,15.22,1111122 
ENP,ioos.station.NOAA.NDBC:LMDF1:1,2017-11-10T15:00:00Z,25.1760,-80.6330,1.5,16.17,1111122 
ENP,ioos.station.NOAA.NDBC:LMDF1:1,2017-11-10T16:00:00Z,25.1760,-80.6330,1.5,13.94,1111122 
ENP,ioos.station.NOAA.NDBC:LMDF1:1,2017-11-10T17:00:00Z,25.1760,-80.6330,1.5,13.76,1111122 
ENP,ioos.station.NOAA.NDBC:LMDF1:1,2017-11-10T18:00:00Z,25.1760,-80.6330,1.5,13.67,1111122 
ENP,ioos.station.NOAA.NDBC:LMDF1:1,2017-11-10T19:00:00Z,25.1760,-80.6330,1.5,13.37,1111122 
ENP,ioos.station.NOAA.NDBC:LMDF1:1,2017-11-10T20:00:00Z,25.1760,-80.6330,1.5,11.95,1111122 
ENP,ioos.station.NOAA.NDBC:LMDF1:1,2017-11-10T21:00:00Z,25.1760,-80.6330,1.5,13.63,1111122 
ENP,ioos.station.NOAA.NDBC:LMDF1:1,2017-11-10T22:00:00Z,25.1760,-80.6330,1.5,11.33,1111122 
ENP,ioos.station.NOAA.NDBC:LMDF1:1,2017-11-10T23:00:00Z,25.1760,-80.6330,1.5,14.21,1111122 
ENP,ioos.station.NOAA.NDBC:LMDF1:1,2017-11-11T00:00:00Z,25.1760,-80.6330,1.5,14.25,1111122 
ENP,ioos.station.NOAA.NDBC:LMDF1:1,2017-11-11T01:00:00Z,25.1760,-80.6330,1.5,12.47,1111122 
ENP,ioos.station.NOAA.NDBC:LMDF1:1,2017-11-11T02:00:00Z,25.1760,-80.6330,1.5,14.11,1111122 
ENP,ioos.station.NOAA.NDBC:LMDF1:1,2017-11-11T04:00:00Z,25.1760,-80.6330,1.5,14.75,1111122 
ENP,ioos.station.NOAA.NDBC:LMDF1:1,2017-11-11T05:00:00Z,25.1760,-80.6330,1.5,14.58,1111122 
ENP,ioos.station.NOAA.NDBC:LMDF1:1,2017-11-11T07:00:00Z,25.1760,-80.6330,1.5,14.74,1111122 
ENP,ioos.station.NOAA.NDBC:LMDF1:1,2017-11-11T08:00:00Z,25.1760,-80.6330,1.5,14.34,1111122 
ENP,ioos.station.NOAA.NDBC:LMDF1:1,2017-11-11T09:00:00Z,25.1760,-80.6330,1.5,14.76,1111122 
ENP,ioos.station.NOAA.NDBC:LMDF1:1,2017-11-11T10:00:00Z,25.1760,-80.6330,1.5,14.12,1111122 
ENP,ioos.station.NOAA.NDBC:LMDF1:1,2017-11-11T12:00:00Z,25.1760,-80.6330,1.5,14.45,1111122 
ENP,ioos.station.NOAA.NDBC:LMDF1:1,2017-11-11T13:00:00Z,25.1760,-80.6330,1.5,13.98,1111122 
ENP,ioos.station.NOAA.NDBC:LMDF1:1,2017-11-11T14:00:00Z,25.1760,-80.6330,1.5,14.09,1111122 
ENP,ioos.station.NOAA.NDBC:LMDF1:1,2017-11-11T15:00:00Z,25.1760,-80.6330,1.5,14.27,1111122 
ENP,ioos.station.NOAA.NDBC:LMDF1:1,2017-11-11T16:00:00Z,25.1760,-80.6330,1.5,13.9,1111122 
ENP,ioos.station.NOAA.NDBC:LMDF1:1,2017-11-11T17:00:00Z,25.1760,-80.6330,1.5,11.28,1111122 
ENP,ioos.station.NOAA.NDBC:LMDF1:1,2017-11-11T18:00:00Z,25.1760,-80.6330,1.5,10.4,1111122 
ENP,ioos.station.NOAA.NDBC:LMDF1:1,2017-11-11T19:00:00Z,25.1760,-80.6330,1.5,13.1,1111122 
ENP,ioos.station.NOAA.NDBC:LMDF1:1,2017-11-11T20:00:00Z,25.1760,-80.6330,1.5,10.07,1111122 
ENP,ioos.station.NOAA.NDBC:LMDF1:1,2017-11-11T21:00:00Z,25.1760,-80.6330,1.5,8.93,1111122 
ENP,ioos.station.NOAA.NDBC:LMDF1:1,2017-11-11T22:00:00Z,25.1760,-80.6330,1.5,11.46,1111122 
ENP,ioos.station.NOAA.NDBC:LMDF1:1,2017-11-11T23:00:00Z,25.1760,-80.6330,1.5,10.54,1111122 
ENP,ioos.station.NOAA.NDBC:LMDF1:1,2017-11-12T00:00:00Z,25.1760,-80.6330,1.5,13.0,1111122 
ENP,ioos.station.NOAA.NDBC:LMDF1:1,2017-11-12T01:00:00Z,25.1760,-80.6330,1.5,13.21,1111122 
ENP,ioos.station.NOAA.NDBC:LMDF1:1,2017-11-12T02:00:00Z,25.1760,-80.6330,1.5,12.56,1111122 
ENP,ioos.station.NOAA.NDBC:LMDF1:1,2017-11-12T05:00:00Z,25.1760,-80.6330,1.5,10.52,1111122 
ENP,ioos.station.NOAA.NDBC:LMDF1:1,2017-11-12T08:00:00Z,25.1760,-80.6330,1.5,13.71,1111122 
ENP,ioos.station.NOAA.NDBC:LMDF1:1,2017-11-12T09:00:00Z,25.1760,-80.6330,1.5,13.72,1111122 
ENP,ioos.station.NOAA.NDBC:LMDF1:1,2017-11-12T10:00:00Z,25.1760,-80.6330,1.5,13.51,1111122 
ENP,ioos.station.NOAA.NDBC:LMDF1:1,2017-11-12T13:00:00Z,25.1760,-80.6330,1.5,12.96,1111122 
ENP,ioos.station.NOAA.NDBC:LMDF1:1,2017-11-12T14:00:00Z,25.1760,-80.6330,1.5,13.11,1111122 
ENP,ioos.station.NOAA.NDBC:LMDF1:1,2017-11-12T15:00:00Z,25.1760,-80.6330,1.5,12.72,1111122 
ENP,ioos.station.NOAA.NDBC:LMDF1:1,2017-11-12T16:00:00Z,25.1760,-80.6330,1.5,13.02,1111122 
ENP,ioos.station.NOAA.NDBC:LMDF1:1,2017-11-12T17:00:00Z,25.1760,-80.6330,1.5,12.9,1111122 
ENP,ioos.station.NOAA.NDBC:LMDF1:1,2017-11-12T18:00:00Z,25.1760,-80.6330,1.5,11.81,1111122 
ENP,ioos.station.NOAA.NDBC:LMDF1:1,2017-11-12T19:00:00Z,25.1760,-80.6330,1.5,10.63,1111122 
ENP,ioos.station.NOAA.NDBC:LMDF1:1,2017-11-12T20:00:00Z,25.1760,-80.6330,1.5,9.42,1111122 
ENP,ioos.station.NOAA.NDBC:LMDF1:1,2017-11-12T21:00:00Z,25.1760,-80.6330,1.5,12.24,1111122 
ENP,ioos.station.NOAA.NDBC:LMDF1:1,2017-11-12T22:00:00Z,25.1760,-80.6330,1.5,10.98,1111122 
ENP,ioos.station.NOAA.NDBC:LMDF1:1,2017-11-12T23:00:00Z,25.1760,-80.6330,1.5,9.72,1111122 
ENP,ioos.station.NOAA.NDBC:LMDF1:1,2017-11-13T00:00:00Z,25.1760,-80.6330,1.5,10.75,1111122 
ENP,ioos.station.NOAA.NDBC:LMDF1:1,2017-11-13T01:00:00Z,25.1760,-80.6330,1.5,12.91,1111122 
ENP,ioos.station.NOAA.NDBC:LMDF1:1,2017-11-13T02:00:00Z,25.1760,-80.6330,1.5,12.79,1111122 
ENP,ioos.station.NOAA.NDBC:LMDF1:1,2017-11-13T04:00:00Z,25.1760,-80.6330,1.5,11.29,1111122 
ENP,ioos.station.NOAA.NDBC:LMDF1:1,2017-11-13T05:00:00Z,25.1760,-80.6330,1.5,13.13,1111122 
ENP,ioos.station.NOAA.NDBC:LMDF1:1,2017-11-13T07:00:00Z,25.1760,-80.6330,1.5,13.41,1111122 
ENP,ioos.station.NOAA.NDBC:LMDF1:1,2017-11-13T08:00:00Z,25.1760,-80.6330,1.5,13.61,1111122 
ENP,ioos.station.NOAA.NDBC:LMDF1:1,2017-11-13T09:00:00Z,25.1760,-80.6330,1.5,13.57,1111122 
ENP,ioos.station.NOAA.NDBC:LMDF1:1,2017-11-13T10:00:00Z,25.1760,-80.6330,1.5,13.69,1111122 
ENP,ioos.station.NOAA.NDBC:LMDF1:1,2017-11-13T12:00:00Z,25.1760,-80.6330,1.5,13.96,1111122 
ENP,ioos.station.NOAA.NDBC:LMDF1:1,2017-11-13T13:00:00Z,25.1760,-80.6330,1.5,14.14,1111122 
ENP,ioos.station.NOAA.NDBC:LMDF1:1,2017-11-13T14:00:00Z,25.1760,-80.6330,1.5,14.68,1111122 
ENP,ioos.station.NOAA.NDBC:LMDF1:1,2017-11-13T15:00:00Z,25.1760,-80.6330,1.5,14.68,1111122 
ENP,ioos.station.NOAA.NDBC:LMDF1:1,2017-11-13T16:00:00Z,25.1760,-80.6330,1.5,14.17,1111122 
ENP,ioos.station.NOAA.NDBC:LMDF1:1,2017-11-13T17:00:00Z,25.1760,-80.6330,1.5,14.23,1111122 
ENP,ioos.station.NOAA.NDBC:LMDF1:1,2017-11-13T18:00:00Z,25.1760,-80.6330,1.5,12.44,1111122 
ENP,ioos.station.NOAA.NDBC:LMDF1:1,2017-11-13T19:00:00Z,25.1760,-80.6330,1.5,13.47,1111122 
ENP,ioos.station.NOAA.NDBC:LMDF1:1,2017-11-13T20:00:00Z,25.1760,-80.6330,1.5,12.43,1111122 
ENP,ioos.station.NOAA.NDBC:LMDF1:1,2017-11-13T21:00:00Z,25.1760,-80.6330,1.5,11.46,1111122 